• In Netherlands
  • List of Countries
  • For 7 days
  • Water Temperature
  • Satellite Maps
  • Weather Map
  • Weather Widgets
  • user-avatar
    Login

    Hourly Weather Idzhewan

    Today, 27 May, Saturday

    Time Temperature Precipitation Wind Pressure Humidity
    00:00 +12°C° 0.2 mm 1 mps 692 mmHg 94%
    01:00 +12°C° 0 mm 1 mps 692 mmHg 94%
    02:00 +12°C° 0 mm 1 mps 691 mmHg 94%
    03:00 +11°C° 0 mm 0 mps 691 mmHg 93%
    04:00 +12°C° 0 mm 0 mps 691 mmHg 91%
    05:00 +14°C° 0 mm 1 mps 691 mmHg 88%
    06:00 +14°C° 0 mm 1 mps 692 mmHg 85%
    07:00 +16°C° 0 mm 1 mps 692 mmHg 76%
    08:00 +19°C° 0 mm 1 mps 692 mmHg 68%
    09:00 +21°C° 0 mm 1 mps 692 mmHg 60%
    10:00 +22°C° 0.2 mm 1 mps 691 mmHg 56%
    11:00 +23°C° 0.2 mm 2 mps 691 mmHg 52%
    12:00 +24°C° 0.2 mm 2 mps 691 mmHg 49%
    13:00 +24°C° 0.6 mm 2 mps 690 mmHg 51%
    14:00 +25°C° 0.6 mm 2 mps 690 mmHg 54%
    15:00 +25°C° 0.6 mm 2 mps 690 mmHg 57%
    16:00 +24°C° 1 mm 1 mps 689 mmHg 62%
    17:00 +23°C° 1 mm 1 mps 689 mmHg 66%
    18:00 +22°C° 1 mm 1 mps 689 mmHg 71%
    19:00 +19°C° 0.4 mm 1 mps 689 mmHg 76%
    20:00 +16°C° 0.4 mm 1 mps 689 mmHg 82%
    21:00 +13°C° 0.4 mm 1 mps 689 mmHg 87%
    22:00 +13°C° 0.1 mm 1 mps 690 mmHg 88%
    23:00 +13°C° 0.1 mm 1 mps 690 mmHg 89%

    Tomorrow, 28 May, Sunday

    Time Temperature Precipitation Wind Pressure Humidity
    00:00 +13°C° 0.1 mm 1 mps 690 mmHg 89%
    01:00 +13°C° 0 mm 1 mps 690 mmHg 89%
    02:00 +12°C° 0 mm 1 mps 690 mmHg 89%
    03:00 +12°C° 0 mm 1 mps 690 mmHg 88%
    04:00 +13°C° 0 mm 1 mps 691 mmHg 86%
    05:00 +14°C° 0 mm 1 mps 691 mmHg 83%
    06:00 +15°C° 0 mm 1 mps 691 mmHg 80%
    07:00 +18°C° 0 mm 1 mps 692 mmHg 70%
    08:00 +21°C° 0 mm 1 mps 692 mmHg 59%
    09:00 +23°C° 0 mm 1 mps 692 mmHg 49%
    10:00 +24°C° 0.2 mm 2 mps 692 mmHg 47%
    11:00 +25°C° 0.2 mm 2 mps 692 mmHg 45%
    12:00 +26°C° 0.2 mm 2 mps 692 mmHg 43%
    13:00 +26°C° 0.7 mm 2 mps 692 mmHg 43%
    14:00 +26°C° 0.7 mm 2 mps 692 mmHg 44%
    15:00 +27°C° 0.7 mm 2 mps 691 mmHg 44%
    16:00 +26°C° 1 mm 2 mps 691 mmHg 50%
    17:00 +25°C° 1 mm 1 mps 691 mmHg 57%
    18:00 +23°C° 1 mm 1 mps 692 mmHg 63%
    19:00 +21°C° 0.8 mm 1 mps 692 mmHg 71%
    20:00 +18°C° 0.8 mm 1 mps 692 mmHg 78%
    21:00 +14°C° 0.8 mm 1 mps 692 mmHg 86%
    22:00 +13°C° 0.1 mm 1 mps 693 mmHg 87%
    23:00 +11°C° 0.1 mm 0 mps 693 mmHg 87%

    Day after tomorrow, 29 May, Monday

    Time Temperature Precipitation Wind Pressure Humidity
    00:00 +11°C° 0.1 mm 0 mps 693 mmHg 88%
    01:00 +10°C° 0 mm 0 mps 693 mmHg 90%
    02:00 +10°C° 0 mm 0 mps 693 mmHg 91%
    03:00 +10°C° 0 mm 1 mps 693 mmHg 92%
    04:00 +12°C° 0 mm 1 mps 694 mmHg 88%
    05:00 +14°C° 0 mm 1 mps 694 mmHg 84%
    06:00 +16°C° 0 mm 1 mps 695 mmHg 79%
    07:00 +19°C° 0 mm 1 mps 695 mmHg 69%
    08:00 +21°C° 0 mm 1 mps 696 mmHg 60%
    09:00 +23°C° 0 mm 1 mps 696 mmHg 50%
    10:00 +24°C° 0.1 mm 1 mps 696 mmHg 49%
    11:00 +25°C° 0.1 mm 2 mps 696 mmHg 47%
    12:00 +26°C° 0.1 mm 2 mps 696 mmHg 46%
    13:00 +26°C° 0.3 mm 2 mps 695 mmHg 48%
    14:00 +26°C° 0.3 mm 3 mps 695 mmHg 50%
    15:00 +26°C° 0.3 mm 3 mps 695 mmHg 51%
    16:00 +25°C° 0.8 mm 2 mps 695 mmHg 58%
    17:00 +24°C° 0.8 mm 2 mps 695 mmHg 64%
    18:00 +23°C° 0.8 mm 2 mps 695 mmHg 70%
    19:00 +20°C° 1.4 mm 2 mps 695 mmHg 75%
    20:00 +17°C° 1.4 mm 2 mps 695 mmHg 79%
    21:00 +15°C° 1.4 mm 1 mps 696 mmHg 84%
    22:00 +15°C° 0.6 mm 1 mps 696 mmHg 86%
    23:00 +14°C° 0.6 mm 1 mps 696 mmHg 89%

    30 May, Tuesday

    Time Temperature Precipitation Wind Pressure Humidity
    00:00 +13°C° 0.6 mm 1 mps 696 mmHg 91%
    01:00 +13°C° 0.2 mm 1 mps 695 mmHg 92%
    02:00 +13°C° 0.2 mm 1 mps 695 mmHg 93%
    03:00 +14°C° 0.2 mm 1 mps 695 mmHg 94%
    04:00 +13°C° 0 mm 0 mps 695 mmHg 92%
    05:00 +14°C° 0 mm 0 mps 695 mmHg 91%
    06:00 +14°C° 0 mm 0 mps 695 mmHg 89%
    07:00 +16°C° 0 mm 0 mps 695 mmHg 81%
    08:00 +20°C° 0 mm 1 mps 695 mmHg 72%
    09:00 +21°C° 0 mm 1 mps 696 mmHg 64%
    10:00 +23°C° 0 mm 1 mps 695 mmHg 57%
    11:00 +24°C° 0 mm 2 mps 695 mmHg 51%
    12:00 +26°C° 0 mm 2 mps 695 mmHg 44%
    13:00 +26°C° 0 mm 2 mps 694 mmHg 43%
    14:00 +27°C° 0 mm 2 mps 694 mmHg 43%
    15:00 +27°C° 0 mm 2 mps 694 mmHg 42%
    16:00 +26°C° 0.1 mm 1 mps 694 mmHg 48%
    17:00 +26°C° 0.1 mm 1 mps 694 mmHg 54%
    18:00 +25°C° 0.1 mm 1 mps 694 mmHg 60%
    19:00 +22°C° 0.1 mm 1 mps 693 mmHg 70%
    20:00 +18°C° 0.1 mm 1 mps 693 mmHg 80%
    21:00 +14°C° 0.1 mm 1 mps 693 mmHg 90%
    22:00 +14°C° 0 mm 1 mps 693 mmHg 89%
    23:00 +15°C° 0 mm 1 mps 693 mmHg 88%

    31 May, Wednesday

    Time Temperature Precipitation Wind Pressure Humidity
    00:00 +15°C° 0 mm 1 mps 693 mmHg 87%
    01:00 +14°C° 0 mm 1 mps 693 mmHg 88%
    02:00 +14°C° 0 mm 1 mps 693 mmHg 88%
    03:00 +13°C° 0 mm 1 mps 692 mmHg 88%
    04:00 +15°C° 0 mm 1 mps 693 mmHg 82%
    05:00 +16°C° 0 mm 1 mps 693 mmHg 76%
    06:00 +19°C° 0 mm 1 mps 694 mmHg 70%
    07:00 +21°C° 0 mm 1 mps 694 mmHg 60%
    08:00 +23°C° 0 mm 1 mps 694 mmHg 50%
    09:00 +26°C° 0 mm 1 mps 694 mmHg 41%
    10:00 +27°C° 0 mm 1 mps 693 mmHg 38%
    11:00 +28°C° 0 mm 2 mps 693 mmHg 36%
    12:00 +29°C° 0 mm 2 mps 693 mmHg 33%
    13:00 +29°C° 0 mm 2 mps 692 mmHg 34%
    14:00 +29°C° 0 mm 2 mps 692 mmHg 34%
    15:00 +29°C° 0 mm 2 mps 692 mmHg 35%
    16:00 +28°C° 0.2 mm 2 mps 692 mmHg 42%
    17:00 +27°C° 0.2 mm 2 mps 691 mmHg 50%
    18:00 +26°C° 0.2 mm 1 mps 691 mmHg 57%
    19:00 +23°C° 0.7 mm 1 mps 691 mmHg 65%
    20:00 +20°C° 0.7 mm 1 mps 691 mmHg 73%
    21:00 +16°C° 0.7 mm 1 mps 690 mmHg 81%
    22:00 +16°C° 0.9 mm 1 mps 690 mmHg 82%
    23:00 +15°C° 0.9 mm 1 mps 690 mmHg 83%

    1 June, Thursday

    Time Temperature Precipitation Wind Pressure Humidity
    00:00 +13°C° 0.9 mm 0 mps 690 mmHg 85%
    01:00 +13°C° 1 mm 0 mps 690 mmHg 86%
    02:00 +12°C° 1 mm 0 mps 689 mmHg 88%
    03:00 +12°C° 1 mm 0 mps 689 mmHg 90%
    04:00 +13°C° 0.4 mm 0 mps 689 mmHg 87%
    05:00 +15°C° 0.4 mm 1 mps 690 mmHg 85%
    06:00 +18°C° 0.4 mm 1 mps 690 mmHg 82%
    07:00 +19°C° 0.2 mm 1 mps 690 mmHg 75%
    08:00 +21°C° 0.2 mm 1 mps 690 mmHg 67%
    09:00 +23°C° 0.2 mm 1 mps 690 mmHg 59%
    10:00 +24°C° 0.3 mm 1 mps 689 mmHg 56%
    11:00 +25°C° 0.3 mm 1 mps 689 mmHg 53%
    12:00 +26°C° 0.3 mm 1 mps 689 mmHg 50%
    13:00 +26°C° 0.5 mm 1 mps 688 mmHg 51%
    14:00 +26°C° 0.5 mm 1 mps 688 mmHg 51%
    15:00 +26°C° 0.5 mm 1 mps 688 mmHg 52%
    16:00 +26°C° 0.9 mm 1 mps 688 mmHg 58%
    17:00 +25°C° 0.9 mm 1 mps 688 mmHg 63%
    18:00 +24°C° 0.9 mm 1 mps 688 mmHg 69%
    19:00 +21°C° 0.6 mm 1 mps 688 mmHg 74%
    20:00 +19°C° 0.6 mm 1 mps 688 mmHg 78%
    21:00 +15°C° 0.6 mm 1 mps 689 mmHg 83%
    22:00 +15°C° 0.3 mm 1 mps 689 mmHg 86%
    23:00 +14°C° 0.3 mm 1 mps 689 mmHg 88%
    Show more